contact:dominique.lefevre@mio.osupytheas.fr, maurice.libes@osupytheas.fr, didier.mallarino@osupytheas.fr
Project:EMSO http://www.emso-fr.org/EMSO-France
Depth: 2436.0 m
Title:EMSO Ligure Ouest : Data MII capteur MICROCAT
DateTime_Computer,Latitude,Longitude,Temperature,Conductivity,Pressure,DateTime_Instrument
DateTime_Computer,Latitude,Longitude,degC,S m-1,dbar,DateTime_Instrument
2022-07-05T00:02:47Z,42.805,6.029,13.3011,4.60058,2470.707,2022-7-05T02:04:32Z
2022-07-05T00:05:50Z,42.805,6.029,13.3011,4.60057,2470.646,2022-7-05T02:07:35Z
2022-07-05T00:08:53Z,42.805,6.029,13.3016,4.60056,2470.67,2022-7-05T02:10:38Z
2022-07-05T00:11:56Z,42.805,6.029,13.3019,4.60050,2470.67,2022-7-05T02:13:41Z
2022-07-05T00:14:59Z,42.805,6.029,13.3010,4.60053,2470.693,2022-7-05T02:16:45Z
2022-07-05T00:18:02Z,42.805,6.029,13.3014,4.60049,2470.67,2022-7-05T02:19:48Z
2022-07-05T00:21:05Z,42.805,6.029,13.3017,4.60062,2470.646,2022-7-05T02:22:51Z
2022-07-05T00:24:09Z,42.805,6.029,13.3015,4.60062,2470.646,2022-7-05T02:25:54Z
2022-07-05T00:27:12Z,42.805,6.029,13.3019,4.60060,2470.61,2022-7-05T02:28:57Z
2022-07-05T00:30:15Z,42.805,6.029,13.3014,4.60051,2470.67,2022-7-05T02:32:00Z
2022-07-05T00:33:18Z,42.805,6.029,13.3012,4.60054,2470.661,2022-7-05T02:35:03Z
2022-07-05T00:36:21Z,42.805,6.029,13.3015,4.60055,2470.693,2022-7-05T02:38:06Z
2022-07-05T00:39:24Z,42.805,6.029,13.3012,4.60056,2470.646,2022-7-05T02:41:09Z
2022-07-05T00:42:27Z,42.805,6.029,13.3017,4.60064,2470.67,2022-7-05T02:44:13Z
2022-07-05T00:45:30Z,42.805,6.029,13.3019,4.60064,2470.67,2022-7-05T02:47:16Z
2022-07-05T00:48:34Z,42.805,6.029,13.3019,4.60057,2470.684,2022-7-05T02:50:19Z
2022-07-05T00:51:37Z,42.805,6.029,13.3014,4.60052,2470.684,2022-7-05T02:53:22Z
2022-07-05T00:54:40Z,42.805,6.029,13.3019,4.60051,2470.67,2022-7-05T02:56:25Z
2022-07-05T00:57:43Z,42.805,6.029,13.3012,4.60059,2470.67,2022-7-05T02:59:28Z
2022-07-05T01:00:46Z,42.805,6.029,13.3016,4.60046,2470.67,2022-7-05T03:02:31Z
2022-07-05T01:03:49Z,42.805,6.029,13.3011,4.60047,2470.684,2022-7-05T03:05:34Z
2022-07-05T01:06:52Z,42.805,6.029,13.3013,4.60059,2470.661,2022-7-05T03:08:38Z
2022-07-05T01:09:55Z,42.805,6.029,13.3015,4.60059,2470.684,2022-7-05T03:11:41Z
2022-07-05T01:12:58Z,42.805,6.029,13.3014,4.60065,2470.646,2022-7-05T03:14:44Z
2022-07-05T01:16:02Z,42.805,6.029,13.3015,4.60061,2470.646,2022-7-05T03:17:47Z
2022-07-05T01:19:05Z,42.805,6.029,13.3017,4.60063,2470.624,2022-7-05T03:20:50Z
2022-07-05T01:22:08Z,42.805,6.029,13.3012,4.60053,2470.661,2022-7-05T03:23:53Z
2022-07-05T01:25:11Z,42.805,6.029,13.3014,4.60054,2470.661,2022-7-05T03:26:56Z
2022-07-05T01:28:14Z,42.805,6.029,13.3015,4.60063,2470.624,2022-7-05T03:29:59Z
2022-07-05T01:31:17Z,42.805,6.029,13.3009,4.60055,2470.67,2022-7-05T03:33:02Z
2022-07-05T01:34:20Z,42.805,6.029,13.3015,4.60055,2470.614,2022-7-05T03:36:06Z
2022-07-05T01:37:23Z,42.805,6.029,13.3011,4.60046,2470.646,2022-7-05T03:39:09Z
2022-07-05T01:40:26Z,42.805,6.029,13.3018,4.60049,2470.646,2022-7-05T03:42:12Z
2022-07-05T01:43:30Z,42.805,6.029,13.3022,4.60052,2470.646,2022-7-05T03:45:15Z
2022-07-05T01:46:33Z,42.805,6.029,13.3011,4.60067,2470.646,2022-7-05T03:48:18Z
2022-07-05T01:49:36Z,42.805,6.029,13.3018,4.60049,2470.637,2022-7-05T03:51:21Z
2022-07-05T01:52:39Z,42.805,6.029,13.3016,4.60049,2470.614,2022-7-05T03:54:24Z
2022-07-05T01:55:42Z,42.805,6.029,13.3016,4.60052,2470.637,2022-7-05T03:57:27Z
2022-07-05T01:58:45Z,42.805,6.029,13.3016,4.60050,2470.637,2022-7-05T04:00:31Z
2022-07-05T02:01:48Z,42.805,6.029,13.3017,4.60053,2470.624,2022-7-05T04:03:34Z
2022-07-05T02:04:51Z,42.805,6.029,13.3018,4.60055,2470.661,2022-7-05T04:06:37Z
2022-07-05T02:07:55Z,42.805,6.029,13.3010,4.60047,2470.6,2022-7-05T04:09:40Z
2022-07-05T02:10:58Z,42.805,6.029,13.3014,4.60053,2470.646,2022-7-05T04:12:43Z
2022-07-05T02:14:01Z,42.805,6.029,13.3015,4.60053,2470.6,2022-7-05T04:15:46Z
2022-07-05T02:17:04Z,42.805,6.029,13.3017,4.60050,2470.614,2022-7-05T04:18:49Z
2022-07-05T02:20:07Z,42.805,6.029,13.3023,4.60052,2470.637,2022-7-05T04:21:52Z
2022-07-05T02:23:10Z,42.805,6.029,13.3013,4.60059,2470.614,2022-7-05T04:24:55Z
2022-07-05T02:26:13Z,42.805,6.029,13.3013,4.60047,2470.6,2022-7-05T04:27:59Z
2022-07-05T02:29:16Z,42.805,6.029,13.3010,4.60044,2470.6,2022-7-05T04:31:02Z
2022-07-05T02:32:19Z,42.805,6.029,13.3015,4.60046,2470.614,2022-7-05T04:34:05Z
2022-07-05T02:35:23Z,42.805,6.029,13.3014,4.60052,2470.637,2022-7-05T04:37:08Z
2022-07-05T02:38:26Z,42.805,6.029,13.3011,4.60042,2470.614,2022-7-05T04:40:11Z
2022-07-05T02:41:29Z,42.805,6.029,13.3016,4.60049,2470.624,2022-7-05T04:43:14Z
2022-07-05T02:44:32Z,42.805,6.029,13.3015,4.60047,2470.6,2022-7-05T04:46:17Z
2022-07-05T02:47:35Z,42.805,6.029,13.3015,4.60049,2470.624,2022-7-05T04:49:20Z
2022-07-05T02:50:38Z,42.805,6.029,13.3015,4.60049,2470.6,2022-7-05T04:52:23Z
2022-07-05T02:53:41Z,42.805,6.029,13.3015,4.60048,2470.6,2022-7-05T04:55:27Z
2022-07-05T02:56:44Z,42.805,6.029,13.3015,4.60047,2470.6,2022-7-05T04:58:30Z
2022-07-05T02:59:47Z,42.805,6.029,13.3015,4.60042,2470.624,2022-7-05T05:01:33Z
2022-07-05T03:02:51Z,42.805,6.029,13.3009,4.60046,2470.6,2022-7-05T05:04:36Z
2022-07-05T03:05:54Z,42.805,6.029,13.3014,4.60056,2470.6,2022-7-05T05:07:39Z
2022-07-05T03:08:57Z,42.805,6.029,13.3014,4.60050,2470.577,2022-7-05T05:10:42Z
2022-07-05T03:12:00Z,42.805,6.029,13.3008,4.60046,2470.591,2022-7-05T05:13:45Z
2022-07-05T03:15:03Z,42.805,6.029,13.3016,4.60053,2470.577,2022-7-05T05:16:48Z
2022-07-05T03:18:06Z,42.805,6.029,13.3005,4.60039,2470.614,2022-7-05T05:19:52Z
2022-07-05T03:21:09Z,42.805,6.029,13.3015,4.60050,2470.577,2022-7-05T05:22:55Z
2022-07-05T03:24:12Z,42.805,6.029,13.3020,4.60052,2470.614,2022-7-05T05:25:58Z
2022-07-05T03:27:16Z,42.805,6.029,13.3014,4.60046,2470.577,2022-7-05T05:29:01Z
2022-07-05T03:30:19Z,42.805,6.029,13.3014,4.60046,2470.614,2022-7-05T05:32:04Z
2022-07-05T03:33:22Z,42.805,6.029,13.3019,4.60044,2470.6,2022-7-05T05:35:07Z
2022-07-05T03:36:25Z,42.805,6.029,13.3016,4.60048,2470.553,2022-7-05T05:38:10Z
2022-07-05T03:39:28Z,42.805,6.029,13.3007,4.60045,2470.563,2022-7-05T05:41:13Z
2022-07-05T03:42:31Z,42.805,6.029,13.3014,4.60046,2470.553,2022-7-05T05:44:16Z
2022-07-05T03:45:34Z,42.805,6.029,13.3015,4.60050,2470.577,2022-7-05T05:47:20Z
2022-07-05T03:48:37Z,42.805,6.029,13.3020,4.60052,2470.553,2022-7-05T05:50:23Z
2022-07-05T03:51:40Z,42.805,6.029,13.3023,4.60049,2470.577,2022-7-05T05:53:26Z
2022-07-05T03:54:44Z,42.805,6.029,13.3016,4.60042,2470.567,2022-7-05T05:56:29Z
2022-07-05T03:57:47Z,42.805,6.029,13.3017,4.60060,2470.577,2022-7-05T05:59:32Z
2022-07-05T04:00:50Z,42.805,6.029,13.3014,4.60050,2470.567,2022-7-05T06:02:35Z
2022-07-05T04:03:53Z,42.805,6.029,13.3013,4.60049,2470.577,2022-7-05T06:05:38Z
2022-07-05T04:06:56Z,42.805,6.029,13.3019,4.60057,2470.553,2022-7-05T06:08:41Z
2022-07-05T04:09:59Z,42.805,6.029,13.3011,4.60051,2470.591,2022-7-05T06:11:45Z
2022-07-05T04:13:02Z,42.805,6.029,13.3021,4.60049,2470.553,2022-7-05T06:14:48Z
2022-07-05T04:16:05Z,42.805,6.029,13.3013,4.60056,2470.577,2022-7-05T06:17:51Z
2022-07-05T04:19:09Z,42.805,6.029,13.3017,4.60062,2470.577,2022-7-05T06:20:54Z
2022-07-05T04:22:12Z,42.805,6.029,13.3010,4.60052,2470.591,2022-7-05T06:23:57Z
2022-07-05T04:25:15Z,42.805,6.029,13.3018,4.60055,2470.553,2022-7-05T06:27:00Z
2022-07-05T04:28:18Z,42.805,6.029,13.3019,4.60053,2470.577,2022-7-05T06:30:03Z
2022-07-05T04:31:21Z,42.805,6.029,13.3015,4.60051,2470.553,2022-7-05T06:33:06Z
2022-07-05T04:34:24Z,42.805,6.029,13.3012,4.60045,2470.553,2022-7-05T06:36:09Z
2022-07-05T04:37:27Z,42.805,6.029,13.3020,4.60049,2470.591,2022-7-05T06:39:13Z
2022-07-05T04:40:30Z,42.805,6.029,13.3019,4.60056,2470.614,2022-7-05T06:42:16Z
2022-07-05T04:43:33Z,42.805,6.029,13.3021,4.60046,2470.553,2022-7-05T06:45:19Z
2022-07-05T04:46:37Z,42.805,6.029,13.3022,4.60057,2470.539,2022-7-05T06:48:22Z
2022-07-05T04:49:40Z,42.805,6.029,13.3011,4.60047,2470.553,2022-7-05T06:51:25Z
2022-07-05T04:52:43Z,42.805,6.029,13.3020,4.60051,2470.553,2022-7-05T06:54:28Z
2022-07-05T04:55:46Z,42.805,6.029,13.3015,4.60042,2470.567,2022-7-05T06:57:31Z
2022-07-05T04:58:49Z,42.805,6.029,13.3019,4.60052,2470.577,2022-7-05T07:00:34Z
2022-07-05T05:01:52Z,42.805,6.029,13.3026,4.60064,2470.553,2022-7-05T07:03:37Z
2022-07-05T05:04:55Z,42.805,6.029,13.3016,4.60057,2470.53,2022-7-05T07:06:41Z
2022-07-05T05:07:58Z,42.805,6.029,13.3016,4.60054,2470.577,2022-7-05T07:09:44Z
2022-07-05T05:11:02Z,42.805,6.029,13.3016,4.60055,2470.553,2022-7-05T07:12:47Z
2022-07-05T05:14:05Z,42.805,6.029,13.3015,4.60060,2470.553,2022-7-05T07:15:50Z
2022-07-05T05:17:08Z,42.805,6.029,13.3021,4.60060,2470.53,2022-7-05T07:18:53Z
2022-07-05T05:20:11Z,42.805,6.029,13.3022,4.60056,2470.614,2022-7-05T07:21:56Z
2022-07-05T05:23:14Z,42.805,6.029,13.3011,4.60047,2470.53,2022-7-05T07:24:59Z
2022-07-05T05:26:17Z,42.805,6.029,13.3024,4.60051,2470.553,2022-7-05T07:28:02Z
2022-07-05T05:29:20Z,42.805,6.029,13.3017,4.60059,2470.553,2022-7-05T07:31:06Z
2022-07-05T05:32:23Z,42.805,6.029,13.3019,4.60052,2470.553,2022-7-05T07:34:09Z
2022-07-05T05:35:26Z,42.805,6.029,13.3018,4.60052,2470.567,2022-7-05T07:37:12Z
2022-07-05T05:38:30Z,42.805,6.029,13.3019,4.60056,2470.516,2022-7-05T07:40:15Z
2022-07-05T05:41:33Z,42.805,6.029,13.3014,4.60061,2470.591,2022-7-05T07:43:18Z
2022-07-05T05:44:36Z,42.805,6.029,13.3021,4.60057,2470.567,2022-7-05T07:46:21Z
2022-07-05T05:47:39Z,42.805,6.029,13.3020,4.60069,2470.567,2022-7-05T07:49:24Z
2022-07-05T05:50:42Z,42.805,6.029,13.3014,4.60054,2470.544,2022-7-05T07:52:27Z
2022-07-05T05:53:45Z,42.805,6.029,13.3019,4.60055,2470.544,2022-7-05T07:55:30Z
2022-07-05T05:56:48Z,42.805,6.029,13.3017,4.60061,2470.567,2022-7-05T07:58:34Z
2022-07-05T05:59:51Z,42.805,6.029,13.3016,4.60068,2470.567,2022-7-05T08:01:37Z
2022-07-05T06:02:55Z,42.805,6.029,13.3014,4.60047,2470.53,2022-7-05T08:04:40Z
2022-07-05T06:05:58Z,42.805,6.029,13.3022,4.60059,2470.53,2022-7-05T08:07:43Z
2022-07-05T06:09:01Z,42.805,6.029,13.3016,4.60060,2470.53,2022-7-05T08:10:46Z
2022-07-05T06:12:04Z,42.805,6.029,13.3019,4.60062,2470.553,2022-7-05T08:13:49Z
2022-07-05T06:15:07Z,42.805,6.029,13.3012,4.60062,2470.591,2022-7-05T08:16:52Z
2022-07-05T06:18:10Z,42.805,6.029,13.3021,4.60053,2470.544,2022-7-05T08:19:55Z
2022-07-05T06:21:13Z,42.805,6.029,13.3017,4.60053,2470.544,2022-7-05T08:22:59Z
2022-07-05T06:24:16Z,42.805,6.029,13.3018,4.60062,2470.553,2022-7-05T08:26:02Z
2022-07-05T06:27:19Z,42.805,6.029,13.3022,4.60067,2470.53,2022-7-05T08:29:05Z
2022-07-05T06:30:23Z,42.805,6.029,13.3026,4.60067,2470.577,2022-7-05T08:32:08Z
2022-07-05T06:33:26Z,42.805,6.029,13.3019,4.60056,2470.544,2022-7-05T08:35:11Z
2022-07-05T06:36:29Z,42.805,6.029,13.3020,4.60059,2470.567,2022-7-05T08:38:14Z
2022-07-05T06:39:32Z,42.805,6.029,13.3019,4.60062,2470.544,2022-7-05T08:41:17Z
2022-07-05T06:42:35Z,42.805,6.029,13.3025,4.60052,2470.553,2022-7-05T08:44:20Z
2022-07-05T06:45:38Z,42.805,6.029,13.3021,4.60059,2470.591,2022-7-05T08:47:23Z
2022-07-05T06:48:41Z,42.805,6.029,13.3017,4.60052,2470.553,2022-7-05T08:50:27Z
2022-07-05T06:51:44Z,42.805,6.029,13.3011,4.60053,2470.507,2022-7-05T08:53:30Z
2022-07-05T06:54:47Z,42.805,6.029,13.3021,4.60060,2470.553,2022-7-05T08:56:33Z
2022-07-05T06:57:51Z,42.805,6.029,13.3024,4.60054,2470.577,2022-7-05T08:59:36Z
2022-07-05T07:00:54Z,42.805,6.029,13.3015,4.60057,2470.553,2022-7-05T09:02:39Z
2022-07-05T07:03:57Z,42.805,6.029,13.3023,4.60074,2470.567,2022-7-05T09:05:42Z
2022-07-05T07:07:00Z,42.805,6.029,13.3024,4.60060,2470.53,2022-7-05T09:08:45Z
2022-07-05T07:10:03Z,42.805,6.029,13.3021,4.60054,2470.567,2022-7-05T09:11:48Z
2022-07-05T07:13:06Z,42.805,6.029,13.3017,4.60061,2470.567,2022-7-05T09:14:51Z
2022-07-05T07:16:09Z,42.805,6.029,13.3021,4.60062,2470.53,2022-7-05T09:17:55Z
2022-07-05T07:19:12Z,42.805,6.029,13.3020,4.60056,2470.553,2022-7-05T09:20:58Z
2022-07-05T07:22:15Z,42.805,6.029,13.3017,4.60062,2470.591,2022-7-05T09:24:01Z
2022-07-05T07:25:19Z,42.805,6.029,13.3015,4.60058,2470.553,2022-7-05T09:27:04Z
2022-07-05T07:28:22Z,42.805,6.029,13.3014,4.60059,2470.567,2022-7-05T09:30:07Z
2022-07-05T07:31:25Z,42.805,6.029,13.3021,4.60069,2470.577,2022-7-05T09:33:10Z
2022-07-05T07:34:28Z,42.805,6.029,13.3016,4.60066,2470.553,2022-7-05T09:36:13Z
2022-07-05T07:37:31Z,42.805,6.029,13.3015,4.60062,2470.577,2022-7-05T09:39:16Z
2022-07-05T07:40:34Z,42.805,6.029,13.3015,4.60057,2470.567,2022-7-05T09:42:20Z
2022-07-05T07:43:37Z,42.805,6.029,13.3016,4.60058,2470.553,2022-7-05T09:45:23Z
2022-07-05T07:46:40Z,42.805,6.029,13.3021,4.60058,2470.553,2022-7-05T09:48:26Z
2022-07-05T07:49:44Z,42.805,6.029,13.3015,4.60061,2470.553,2022-7-05T09:51:29Z
2022-07-05T07:52:47Z,42.805,6.029,13.3018,4.60064,2470.577,2022-7-05T09:54:32Z
2022-07-05T07:55:50Z,42.805,6.029,13.3017,4.60064,2470.591,2022-7-05T09:57:35Z
2022-07-05T07:58:53Z,42.805,6.029,13.3011,4.60056,2470.577,2022-7-05T10:00:38Z
2022-07-05T08:01:56Z,42.805,6.029,13.3015,4.60063,2470.577,2022-7-05T10:03:41Z
2022-07-05T08:04:59Z,42.805,6.029,13.3017,4.60062,2470.577,2022-7-05T10:06:44Z
2022-07-05T08:08:02Z,42.805,6.029,13.3020,4.60064,2470.553,2022-7-05T10:09:48Z
2022-07-05T08:11:05Z,42.805,6.029,13.3020,4.60063,2470.553,2022-7-05T10:12:51Z
2022-07-05T08:14:08Z,42.805,6.029,13.3016,4.60060,2470.577,2022-7-05T10:15:54Z
2022-07-05T08:17:12Z,42.805,6.029,13.3017,4.60067,2470.591,2022-7-05T10:18:57Z
2022-07-05T08:20:15Z,42.805,6.029,13.3017,4.60059,2470.591,2022-7-05T10:22:00Z
2022-07-05T08:23:18Z,42.805,6.029,13.3021,4.60067,2470.577,2022-7-05T10:25:03Z
2022-07-05T08:26:21Z,42.805,6.029,13.3020,4.60066,2470.591,2022-7-05T10:28:06Z
2022-07-05T08:29:24Z,42.805,6.029,13.3021,4.60063,2470.567,2022-7-05T10:31:09Z
2022-07-05T08:32:27Z,42.805,6.029,13.3023,4.60062,2470.553,2022-7-05T10:34:13Z
2022-07-05T08:35:30Z,42.805,6.029,13.3015,4.60063,2470.577,2022-7-05T10:37:16Z
2022-07-05T08:38:33Z,42.805,6.029,13.3014,4.60057,2470.577,2022-7-05T10:40:19Z
2022-07-05T08:41:37Z,42.805,6.029,13.3015,4.60058,2470.577,2022-7-05T10:43:22Z
2022-07-05T08:44:40Z,42.805,6.029,13.3021,4.60063,2470.553,2022-7-05T10:46:25Z
2022-07-05T08:47:43Z,42.805,6.029,13.3016,4.60057,2470.6,2022-7-05T10:49:28Z
2022-07-05T08:50:46Z,42.805,6.029,13.3014,4.60066,2470.577,2022-7-05T10:52:31Z
2022-07-05T08:53:49Z,42.805,6.029,13.3016,4.60060,2470.553,2022-7-05T10:55:34Z
2022-07-05T08:56:52Z,42.805,6.029,13.3018,4.60064,2470.6,2022-7-05T10:58:38Z
2022-07-05T08:59:55Z,42.805,6.029,13.3021,4.60060,2470.614,2022-7-05T11:01:41Z
2022-07-05T09:02:58Z,42.805,6.029,13.3015,4.60050,2470.591,2022-7-05T11:04:44Z
2022-07-05T09:06:02Z,42.805,6.029,13.3017,4.60057,2470.577,2022-7-05T11:07:47Z
2022-07-05T09:09:05Z,42.805,6.029,13.3019,4.60056,2470.577,2022-7-05T11:10:50Z
2022-07-05T09:12:08Z,42.805,6.029,13.3021,4.60055,2470.614,2022-7-05T11:13:53Z
2022-07-05T09:15:11Z,42.805,6.029,13.3011,4.60066,2470.577,2022-7-05T11:16:56Z
2022-07-05T09:18:14Z,42.805,6.029,13.3014,4.60062,2470.563,2022-7-05T11:19:59Z
2022-07-05T09:21:17Z,42.805,6.029,13.3012,4.60060,2470.577,2022-7-05T11:23:03Z
2022-07-05T09:24:20Z,42.805,6.029,13.3012,4.60057,2470.591,2022-7-05T11:26:06Z
2022-07-05T09:27:23Z,42.805,6.029,13.3018,4.60052,2470.577,2022-7-05T11:29:09Z
2022-07-05T09:30:27Z,42.805,6.029,13.3018,4.60057,2470.6,2022-7-05T11:32:12Z
2022-07-05T09:33:30Z,42.805,6.029,13.3015,4.60058,2470.591,2022-7-05T11:35:15Z
2022-07-05T09:36:33Z,42.805,6.029,13.3017,4.60064,2470.6,2022-7-05T11:38:18Z
2022-07-05T09:39:36Z,42.805,6.029,13.3011,4.60054,2470.614,2022-7-05T11:41:21Z
2022-07-05T09:42:39Z,42.805,6.029,13.3014,4.60049,2470.591,2022-7-05T11:44:24Z
2022-07-05T09:45:42Z,42.805,6.029,13.3009,4.60047,2470.577,2022-7-05T11:47:27Z
2022-07-05T09:48:45Z,42.805,6.029,13.3013,4.60059,2470.577,2022-7-05T11:50:31Z
2022-07-05T09:51:48Z,42.805,6.029,13.3015,4.60057,2470.577,2022-7-05T11:53:34Z
2022-07-05T09:54:51Z,42.805,6.029,13.3014,4.60057,2470.6,2022-7-05T11:56:37Z
2022-07-05T09:57:55Z,42.805,6.029,13.3017,4.60057,2470.6,2022-7-05T11:59:40Z
2022-07-05T10:00:58Z,42.805,6.029,13.3013,4.60061,2470.6,2022-7-05T12:02:43Z
2022-07-05T10:04:01Z,42.805,6.029,13.3011,4.60053,2470.567,2022-7-05T12:05:46Z
2022-07-05T10:07:04Z,42.805,6.029,13.3012,4.60056,2470.624,2022-7-05T12:08:49Z
2022-07-05T10:10:07Z,42.805,6.029,13.3017,4.60057,2470.614,2022-7-05T12:11:52Z
2022-07-05T10:13:10Z,42.805,6.029,13.3016,4.60057,2470.6,2022-7-05T12:14:56Z
2022-07-05T10:16:13Z,42.805,6.029,13.3014,4.60049,2470.637,2022-7-05T12:17:59Z
2022-07-05T10:19:16Z,42.805,6.029,13.3015,4.60057,2470.591,2022-7-05T12:21:02Z
2022-07-05T10:22:20Z,42.805,6.029,13.3012,4.60060,2470.624,2022-7-05T12:24:05Z
2022-07-05T10:25:23Z,42.805,6.029,13.3011,4.60054,2470.624,2022-7-05T12:27:08Z
2022-07-05T10:28:26Z,42.805,6.029,13.3016,4.60053,2470.586,2022-7-05T12:30:11Z
2022-07-05T10:31:29Z,42.805,6.029,13.3010,4.60059,2470.637,2022-7-05T12:33:14Z
2022-07-05T10:34:32Z,42.805,6.029,13.3019,4.60062,2470.624,2022-7-05T12:36:17Z
2022-07-05T10:37:35Z,42.805,6.029,13.3014,4.60062,2470.614,2022-7-05T12:39:20Z
2022-07-05T10:40:38Z,42.805,6.029,13.3018,4.60063,2470.6,2022-7-05T12:42:24Z
2022-07-05T10:43:41Z,42.805,6.029,13.3015,4.60057,2470.6,2022-7-05T12:45:27Z
2022-07-05T10:46:45Z,42.805,6.029,13.3017,4.60059,2470.6,2022-7-05T12:48:30Z
2022-07-05T10:49:48Z,42.805,6.029,13.3013,4.60054,2470.6,2022-7-05T12:51:33Z
2022-07-05T10:52:51Z,42.805,6.029,13.3011,4.60053,2470.614,2022-7-05T12:54:36Z
2022-07-05T10:55:54Z,42.805,6.029,13.3017,4.60059,2470.624,2022-7-05T12:57:39Z
2022-07-05T10:58:57Z,42.805,6.029,13.3014,4.60053,2470.6,2022-7-05T13:00:42Z
2022-07-05T11:02:00Z,42.805,6.029,13.3011,4.60044,2470.624,2022-7-05T13:03:46Z
2022-07-05T11:05:03Z,42.805,6.029,13.3010,4.60056,2470.6,2022-7-05T13:06:49Z
2022-07-05T11:08:06Z,42.805,6.029,13.3014,4.60048,2470.614,2022-7-05T13:09:52Z
2022-07-05T11:11:10Z,42.805,6.029,13.3015,4.60052,2470.624,2022-7-05T13:12:55Z
2022-07-05T11:14:13Z,42.805,6.029,13.3011,4.60052,2470.6,2022-7-05T13:15:58Z
2022-07-05T11:17:16Z,42.805,6.029,13.3017,4.60062,2470.6,2022-7-05T13:19:01Z
2022-07-05T11:20:19Z,42.805,6.029,13.3011,4.60057,2470.637,2022-7-05T13:22:04Z
2022-07-05T11:23:22Z,42.805,6.029,13.3011,4.60060,2470.6,2022-7-05T13:25:07Z
2022-07-05T11:26:25Z,42.805,6.029,13.3009,4.60059,2470.646,2022-7-05T13:28:10Z
2022-07-05T11:29:28Z,42.805,6.029,13.3015,4.60059,2470.6,2022-7-05T13:31:14Z
2022-07-05T11:32:31Z,42.805,6.029,13.3013,4.60057,2470.6,2022-7-05T13:34:17Z
2022-07-05T11:35:35Z,42.805,6.029,13.3015,4.60054,2470.6,2022-7-05T13:37:20Z
2022-07-05T11:38:38Z,42.805,6.029,13.3016,4.60062,2470.6,2022-7-05T13:40:23Z
2022-07-05T11:41:41Z,42.805,6.029,13.3020,4.60061,2470.6,2022-7-05T13:43:26Z
2022-07-05T11:44:44Z,42.805,6.029,13.3014,4.60052,2470.577,2022-7-05T13:46:29Z
2022-07-05T11:47:47Z,42.805,6.029,13.3010,4.60058,2470.6,2022-7-05T13:49:32Z
2022-07-05T11:50:50Z,42.805,6.029,13.3014,4.60052,2470.6,2022-7-05T13:52:35Z
2022-07-05T11:53:53Z,42.805,6.029,13.3013,4.60055,2470.6,2022-7-05T13:55:39Z
2022-07-05T11:56:56Z,42.805,6.029,13.3018,4.60049,2470.6,2022-7-05T13:58:42Z
2022-07-05T12:00:00Z,42.805,6.029,13.3016,4.60054,2470.577,2022-7-05T14:01:45Z
2022-07-05T12:03:03Z,42.805,6.029,13.3014,4.60054,2470.591,2022-7-05T14:04:48Z
2022-07-05T12:06:06Z,42.805,6.029,13.3014,4.60050,2470.637,2022-7-05T14:07:51Z
2022-07-05T12:09:09Z,42.805,6.029,13.3014,4.60052,2470.6,2022-7-05T14:10:54Z
2022-07-05T12:12:12Z,42.805,6.029,13.3014,4.60049,2470.577,2022-7-05T14:13:57Z
2022-07-05T12:15:15Z,42.805,6.029,13.3015,4.60057,2470.614,2022-7-05T14:17:00Z
2022-07-05T12:18:18Z,42.805,6.029,13.3012,4.60052,2470.577,2022-7-05T14:20:04Z
2022-07-05T12:21:21Z,42.805,6.029,13.3015,4.60059,2470.591,2022-7-05T14:23:07Z
2022-07-05T12:24:24Z,42.805,6.029,13.3015,4.60062,2470.6,2022-7-05T14:26:10Z
2022-07-05T12:27:28Z,42.805,6.029,13.3012,4.60062,2470.6,2022-7-05T14:29:13Z
2022-07-05T12:30:31Z,42.805,6.029,13.3015,4.60059,2470.577,2022-7-05T14:32:16Z
2022-07-05T12:33:34Z,42.805,6.029,13.3015,4.60054,2470.624,2022-7-05T14:35:19Z
2022-07-05T12:36:37Z,42.805,6.029,13.3013,4.60064,2470.6,2022-7-05T14:38:22Z
2022-07-05T12:39:40Z,42.805,6.029,13.3010,4.60058,2470.591,2022-7-05T14:41:25Z
2022-07-05T12:42:43Z,42.805,6.029,13.3015,4.60053,2470.6,2022-7-05T14:44:29Z
2022-07-05T12:45:46Z,42.805,6.029,13.3014,4.60051,2470.624,2022-7-05T14:47:32Z
2022-07-05T12:48:49Z,42.805,6.029,13.3017,4.60063,2470.577,2022-7-05T14:50:35Z
2022-07-05T12:51:53Z,42.805,6.029,13.3016,4.60053,2470.6,2022-7-05T14:53:38Z
2022-07-05T12:54:56Z,42.805,6.029,13.3009,4.60049,2470.586,2022-7-05T14:56:41Z
2022-07-05T12:57:59Z,42.805,6.029,13.3010,4.60054,2470.637,2022-7-05T14:59:44Z
2022-07-05T13:01:02Z,42.805,6.029,13.3013,4.60061,2470.577,2022-7-05T15:02:47Z
2022-07-05T13:04:05Z,42.805,6.029,13.3011,4.60051,2470.577,2022-7-05T15:05:50Z
2022-07-05T13:07:08Z,42.805,6.029,13.3015,4.60055,2470.591,2022-7-05T15:08:54Z
2022-07-05T13:10:11Z,42.805,6.029,13.3022,4.60057,2470.577,2022-7-05T15:11:57Z
2022-07-05T13:13:14Z,42.805,6.029,13.3009,4.60052,2470.577,2022-7-05T15:15:00Z
2022-07-05T13:16:18Z,42.805,6.029,13.3012,4.60054,2470.577,2022-7-05T15:18:03Z
2022-07-05T13:19:21Z,42.805,6.029,13.3014,4.60059,2470.577,2022-7-05T15:21:06Z
2022-07-05T13:22:24Z,42.805,6.029,13.3015,4.60055,2470.567,2022-7-05T15:24:09Z
2022-07-05T13:25:27Z,42.805,6.029,13.3011,4.60052,2470.591,2022-7-05T15:27:12Z
2022-07-05T13:28:30Z,42.805,6.029,13.3014,4.60052,2470.577,2022-7-05T15:30:15Z
2022-07-05T13:31:33Z,42.805,6.029,13.3016,4.60062,2470.567,2022-7-05T15:33:18Z
2022-07-05T13:34:36Z,42.805,6.029,13.3015,4.60047,2470.507,2022-7-05T15:36:22Z
2022-07-05T13:37:39Z,42.805,6.029,13.3013,4.60049,2470.577,2022-7-05T15:39:25Z
2022-07-05T13:40:43Z,42.805,6.029,13.3011,4.60052,2470.591,2022-7-05T15:42:28Z
2022-07-05T13:43:46Z,42.805,6.029,13.3011,4.60050,2470.553,2022-7-05T15:45:31Z
2022-07-05T13:46:49Z,42.805,6.029,13.3013,4.60052,2470.591,2022-7-05T15:48:34Z
2022-07-05T13:49:52Z,42.805,6.029,13.3010,4.60052,2470.567,2022-7-05T15:51:37Z
2022-07-05T13:52:55Z,42.805,6.029,13.3014,4.60049,2470.553,2022-7-05T15:54:40Z
2022-07-05T13:55:58Z,42.805,6.029,13.3015,4.60057,2470.567,2022-7-05T15:57:43Z
2022-07-05T13:59:01Z,42.805,6.029,13.3017,4.60052,2470.53,2022-7-05T16:00:47Z
2022-07-05T14:02:04Z,42.805,6.029,13.3013,4.60046,2470.53,2022-7-05T16:03:50Z
2022-07-05T14:05:07Z,42.805,6.029,13.3010,4.60049,2470.567,2022-7-05T16:06:53Z
2022-07-05T14:08:11Z,42.805,6.029,13.3011,4.60053,2470.53,2022-7-05T16:09:56Z
2022-07-05T14:11:14Z,42.805,6.029,13.3009,4.60050,2470.553,2022-7-05T16:12:59Z
2022-07-05T14:14:17Z,42.805,6.029,13.3012,4.60046,2470.53,2022-7-05T16:16:02Z
2022-07-05T14:17:20Z,42.805,6.029,13.3011,4.60057,2470.591,2022-7-05T16:19:05Z
2022-07-05T14:20:23Z,42.805,6.029,13.3019,4.60052,2470.553,2022-7-05T16:22:08Z
2022-07-05T14:23:26Z,42.805,6.029,13.3017,4.60054,2470.553,2022-7-05T16:25:12Z
2022-07-05T14:26:29Z,42.805,6.029,13.3012,4.60052,2470.553,2022-7-05T16:28:15Z
2022-07-05T14:29:32Z,42.805,6.029,13.3015,4.60058,2470.553,2022-7-05T16:31:18Z
2022-07-05T14:32:36Z,42.805,6.029,13.3015,4.60062,2470.53,2022-7-05T16:34:21Z
2022-07-05T14:35:39Z,42.805,6.029,13.3020,4.60056,2470.567,2022-7-05T16:37:24Z
2022-07-05T14:38:42Z,42.805,6.029,13.3010,4.60049,2470.553,2022-7-05T16:40:27Z
2022-07-05T14:41:45Z,42.805,6.029,13.3017,4.60052,2470.53,2022-7-05T16:43:30Z
2022-07-05T14:44:48Z,42.805,6.029,13.3015,4.60054,2470.53,2022-7-05T16:46:33Z
2022-07-05T14:47:51Z,42.805,6.029,13.3016,4.60053,2470.553,2022-7-05T16:49:37Z
2022-07-05T14:50:54Z,42.805,6.029,13.3010,4.60052,2470.507,2022-7-05T16:52:40Z
2022-07-05T14:53:57Z,42.805,6.029,13.3012,4.60049,2470.544,2022-7-05T16:55:43Z
2022-07-05T14:57:01Z,42.805,6.029,13.3019,4.60065,2470.553,2022-7-05T16:58:46Z
2022-07-05T15:00:04Z,42.805,6.029,13.3014,4.60049,2470.52,2022-7-05T17:01:49Z
2022-07-05T15:03:07Z,42.805,6.029,13.3015,4.60054,2470.53,2022-7-05T17:04:52Z
2022-07-05T15:06:10Z,42.805,6.029,13.3015,4.60058,2470.507,2022-7-05T17:07:55Z
2022-07-05T15:09:13Z,42.805,6.029,13.3019,4.60055,2470.53,2022-7-05T17:10:58Z
2022-07-05T15:12:16Z,42.805,6.029,13.3012,4.60052,2470.53,2022-7-05T17:14:01Z
2022-07-05T15:15:19Z,42.805,6.029,13.3015,4.60051,2470.53,2022-7-05T17:17:05Z